Погода в Новодонецкой

Россия / Краснодарский край     45°41′58″N   39°46′56″E
темп.,
°C
ветер,
м/с
пор.,
м/с
влажн.,
%
обл.,
%
осадки,
мм/ч
давл.,
гПа
погр.,
м
10 мая, пн
пн1000:00+7з3675100 0.0 1022109
03:00+5з37883 0.4 1022117
06:00+5зсз37875 0.1 1023147
09:00+11зсз686477 0.4 10221351
12:00+12зсз7960100 0.8 10211700
15:00+12зсз61065100 1.6 10201708
18:00+10зсз51077100 0.9 10201224
21:00+8юз71477100 1.1 1018500
11 мая, вт
вт1100:00+7юз71585100 1.4 1016703
03:00+8зюз91588100 3.1 10141304
06:00+8юз91590100 2.2 10131326
09:00+8юз101793100 9.1 10121398
12:00+8ююз91695100 9.9 10131304
15:00+8юз91594100 20.8 10151239
18:00+9ююз71496100 6.4 10151233
21:00+8ююв71393100 10.4 1017754
12 мая, ср
ср1200:00+8ююв61289100 2.2 1017601
03:00+8вюв4891100 2.3 1016175
06:00+8юв499688 0.1 1017324
09:00+12вюв4582100 0.1 1017689
12:00+17вюв45666 0.0 10161320
15:00+19юв456021 0.0 10161475
18:00+18в47765 0.0 1015316
21:00+13в48860 0.0 1014121
13 мая, чт
чт1300:00+11в410915 0.0 1014162
03:00+11всв49918 0.0 1013154
06:00+11в4119011 0.0 1013261
09:00+17вюв587612 0.0 1013447
12:00+22в5667100 0.0 1013668
15:00+24в576497 0.0 1012875
18:00+22в5117994 0.0 1012405
21:00+18в514890 0.0 1012261
14 мая, пт
пт1400:00+17в513860 0.0 1011246
03:00+15в411870 0.0 1011181
06:00+15вюв489171 0.0 1011145
09:00+22юв347480 0.0 1012313
12:00+26вюв3463100 0.0 1011494
15:00+28в346045 0.0 1011732
18:00+26всв36795 0.0 1010175
21:00+21в3691100 0.0 101090